TDRS 12

Last updated on July 6, 2021, 3:27 p.m. UTC

1 39504U 14004A   21186.85413735 -.00000258  00000-0  00000-0 0  9990
2 39504   4.2007 342.0935 0003339 149.7535  58.8500  1.00269822 26154
UTC
Height (km)
Latitude
Longitude
Inclination
Orbital Period
UTC large
Height (km)
Speed (km/s)
/
Latitude / Longitude
Inclination (degrees)
Orbital Period (minutes)
Azimuth
Elevation
Range (km)
Doppler Factor
iOS Compass Heading
iOS Angle